Powrót do katalogu

NUSAT-45

UZMASAT-1

AktywnyNaukaSSO
NORAD 62640·PAYLOAD·🇦🇷 Argentina

Wystrzelony Jan 14, 2025 z Vandenberg Space Force Base

Loading…

Następne Przeloty (najbliższe 24 godziny)

TLE

ŚwieżeSource: Space-Track

Epoka: Sep 14, 2026, 12:39 UTC

1 62640U 25009AH  26257.52755961  .00006793  00000-0  23709-3 0  9995
2 62640  97.3541 337.8663 0002889  52.3830 307.7673 15.29918609 92580

Śledź NUSAT-45 w czasie rzeczywistym z AllMySat

Download on the App Store